Location: Newark
(47.5833°N, 8.1500°E)
Time: 17:38:25
(UTC+00:00)

Transit 2A - Pass Details

Date: 05 November 2020
Orbit: 595 x 964 km, 66.7° (Epoch: 29 November)

Event Time Altitude Azimuth Distance (km) Brightness Sun altitude
Rises 20:30:06 0° 148° (SSE) 3,629 - -44.3°
Reaches altitude 10° 20:34:57 10° 115° (ESE) 2,697 - -45.0°
Maximum altitude 20:36:35 11° 100° (E) 2,616 - -45.3°
Drops below altitude 10° 20:38:13 10° 85° (E) 2,688 - -45.5°
Sets 20:42:59 0° 52° (NE) 3,595 - -46.2°
